This demonstration page uses our WeatherBlox Daily Observations layout. Learn more.

Left ArrowRight Arrow

39.08367, -84.50855

Hourly Observations for March 5, 2018

Temp ( °F °C ) Dew Point ( °F °C ) Humidity (%) Winds ( mph kmh ) Pressure ( in mb ) Visibility ( mi km ) Precip ( " mm )
12:53 am 00:53 Clear 35 1.7 22 -5.6 59 59 NE 7 11 30.32 1027 10 16.0934 0 0
1:53 am 01:53 Clear 34 1.1 20 -6.7 56 56 NE 10 17 30.29 1026 10 16.0934 0 0
2:53 am 02:53 Clear 34 1.1 20 -6.7 56 56 ENE 9 15 30.27 1025 10 16.0934 0 0
3:53 am 03:53 Clear 32 0 19 -7.2 59 59 ENE 12 19 30.25 1024 10 16.0934 0 0
4:53 am 04:53 Clear 31 -0.6 17 -8.3 56 56 NE 7 11 30.25 1024 10 16.0934 0 0
5:53 am 05:53 Clear 31 -0.6 18 -7.8 59 59 ENE 7 11 30.25 1025 10 16.0934 0 0
6:53 am 06:53 Clear 31 -0.6 18 -7.8 59 59 ENE 3 6 30.27 1025 10 16.0934 0 0
7:53 am 07:53 Sunny 31 -0.6 20 -6.7 64 64 NE 8 13 30.27 1025 10 16.0934 0 0
8:53 am 08:53 Sunny 33 0.6 19 -7.2 56 56 ENE 8 13 30.26 1025 10 16.0934 0 0
9:53 am 09:53 Sunny 36 2.2 18 -7.8 48 48 ESE 7 11 30.25 1025 10 16.0934 0 0
10:53 am 10:53 Mostly Sunny 39 3.9 17 -8.3 41 41 E 9 15 30.23 1024 10 16.0934 0 0
11:53 am 11:53 Mostly Sunny 41 5 18 -7.8 39 39 ENE 8 13 30.19 1022 10 16.0934 0 0
12:53 pm 12:53 Sunny 43 6.1 18 -7.8 37 37 ENE 10 17 30.17 1022 10 16.0934 0 0
1:53 pm 13:53 Sunny 45 7.2 18 -7.8 34 34 E 12 19 30.11 1020 10 16.0934 0 0
2:53 pm 14:53 Sunny 48 8.9 18 -7.8 30 30 E 12 19 30.08 1019 10 16.0934 0 0
3:53 pm 15:53 Sunny 48 8.9 19 -7.2 32 32 E 13 20 30.06 1018 10 16.0934 0 0
4:53 pm 16:53 Mostly Cloudy 48 8.9 19 -7.2 32 32 E 10 17 30.02 1017 10 16.0934 0 0
5:53 pm 17:53 Mostly Cloudy 47 8.3 19 -7.2 33 33 E 7 11 30.01 1016 10 16.0934 0 0
6:53 pm 18:53 Cloudy 46 7.8 18 -7.8 32 32 E 6 9 29.99 1016 10 16.0934 0 0
7:53 pm 19:53 Cloudy 47 8.3 18 -7.8 31 31 ENE 6 9 29.97 1015 10 16.0934 0 0
8:53 pm 20:53 Cloudy 46 7.8 18 -7.8 32 32 E 9 15 29.95 1014 10 16.0934 0 0
9:53 pm 21:53 Cloudy 46 7.8 18 -7.8 32 32 E 9 15 29.93 1013 10 16.0934 0 0
10:53 pm 22:53 Cloudy 46 7.8 19 -7.2 34 34 ESE 9 15 29.92 1013 10 16.0934 0 0.0254
11:53 pm 23:53 Cloudy 45 7.2 21 -6.1 39 39 E 6 9 29.91 1013 10 16.0934 0 0.0254

Powered by AerisWeather